contact:dominique.lefevre@mio.osupytheas.fr, maurice.libes@osupytheas.fr, didier.mallarino@osupytheas.fr
Project:EMSO http://www.emso-fr.org/EMSO-France
Depth: 2436.0 m
Title:EMSO Ligure Ouest : Data MII capteur CSTAR
DateTime,Latitude,Longitude,Instrument_Serial,Reference_Counts,Signal_Counts,Corrected_Signal_raw_counts,Calculated_Beam_c_inverse_meters,Internal_thermistor_counts
DateTime,Latitude,Longitude,Instrument_Serial,Reference_Counts,Signal_Counts,Corrected_Signal_raw_counts,Calculated_Beam_c_inverse_meters,Internal_thermistor_counts
2020-01-20T00:00:21,42.805,6.029,CST-1368DR,6931,9716,15256,0.093,550
2020-01-20T00:03:22,42.805,6.029,CST-1368DR,6931,9714,15254,0.094,551
2020-01-20T00:06:24,42.805,6.029,CST-1368DR,6931,9715,15256,0.093,551
2020-01-20T00:09:26,42.805,6.029,CST-1368DR,6931,9716,15256,0.093,551
2020-01-20T00:12:27,42.805,6.029,CST-1368DR,6931,9715,15256,0.093,551
2020-01-20T00:15:29,42.805,6.029,CST-1368DR,6931,9716,15258,0.093,551
2020-01-20T00:18:31,42.805,6.029,CST-1368DR,6931,9716,15258,0.093,551
2020-01-20T00:21:32,42.805,6.029,CST-1368DR,6931,9716,15258,0.093,551
2020-01-20T00:24:34,42.805,6.029,CST-1368DR,6931,9716,15256,0.093,551
2020-01-20T00:27:35,42.805,6.029,CST-1368DR,6931,9714,15254,0.094,551
2020-01-20T00:30:37,42.805,6.029,CST-1368DR,6931,9712,15251,0.095,551
2020-01-20T00:33:39,42.805,6.029,CST-1368DR,6931,9710,15248,0.095,551
2020-01-20T00:36:41,42.805,6.029,CST-1368DR,6931,9714,15254,0.094,551
2020-01-20T00:39:42,42.805,6.029,CST-1368DR,6931,9714,15254,0.094,551
2020-01-20T00:42:44,42.805,6.029,CST-1368DR,6931,9715,15255,0.094,551
2020-01-20T00:45:46,42.805,6.029,CST-1368DR,6931,9715,15256,0.093,551
2020-01-20T00:48:47,42.805,6.029,CST-1368DR,6931,9716,15257,0.093,551
2020-01-20T00:51:49,42.805,6.029,CST-1368DR,6931,9715,15255,0.094,551
2020-01-20T00:54:50,42.805,6.029,CST-1368DR,6931,9715,15256,0.093,551
2020-01-20T00:57:52,42.805,6.029,CST-1368DR,6931,9714,15254,0.094,551
2020-01-20T01:00:54,42.805,6.029,CST-1368DR,6931,9715,15256,0.093,551
2020-01-20T01:03:55,42.805,6.029,CST-1368DR,6931,9716,15256,0.093,551
2020-01-20T01:06:57,42.805,6.029,CST-1368DR,6931,9715,15256,0.093,551
2020-01-20T01:09:59,42.805,6.029,CST-1368DR,6931,9715,15256,0.093,551
2020-01-20T01:13:00,42.805,6.029,CST-1368DR,6931,9716,15256,0.093,551
2020-01-20T01:16:02,42.805,6.029,CST-1368DR,6931,9714,15254,0.094,551
2020-01-20T01:19:04,42.805,6.029,CST-1368DR,6931,9715,15255,0.094,551
2020-01-20T01:22:05,42.805,6.029,CST-1368DR,6931,9716,15257,0.093,551
2020-01-20T01:25:07,42.805,6.029,CST-1368DR,6931,9715,15255,0.094,551
2020-01-20T01:28:09,42.805,6.029,CST-1368DR,6931,9715,15255,0.094,551
2020-01-20T01:31:11,42.805,6.029,CST-1368DR,6931,9715,15255,0.094,551
2020-01-20T01:34:12,42.805,6.029,CST-1368DR,6931,9715,15255,0.094,551
2020-01-20T01:37:14,42.805,6.029,CST-1368DR,6931,9714,15254,0.094,551
2020-01-20T01:40:16,42.805,6.029,CST-1368DR,6931,9715,15255,0.094,551
2020-01-20T01:43:17,42.805,6.029,CST-1368DR,6931,9715,15255,0.094,551
2020-01-20T01:46:19,42.805,6.029,CST-1368DR,6931,9715,15255,0.094,551
2020-01-20T01:49:21,42.805,6.029,CST-1368DR,6931,9714,15254,0.094,551
2020-01-20T01:52:22,42.805,6.029,CST-1368DR,6931,9714,15254,0.094,551
2020-01-20T01:55:24,42.805,6.029,CST-1368DR,6931,9715,15256,0.093,551
2020-01-20T01:58:26,42.805,6.029,CST-1368DR,6931,9714,15253,0.094,551
2020-01-20T02:01:27,42.805,6.029,CST-1368DR,6931,9714,15254,0.094,551
2020-01-20T02:04:29,42.805,6.029,CST-1368DR,6931,9714,15254,0.094,551
2020-01-20T02:07:31,42.805,6.029,CST-1368DR,6931,9714,15254,0.094,551
2020-01-20T02:10:32,42.805,6.029,CST-1368DR,6931,9715,15256,0.093,551
2020-01-20T02:13:34,42.805,6.029,CST-1368DR,6931,9715,15255,0.094,551
2020-01-20T02:16:36,42.805,6.029,CST-1368DR,6931,9715,15256,0.093,551
2020-01-20T02:19:37,42.805,6.029,CST-1368DR,6931,9714,15253,0.094,551
2020-01-20T02:22:39,42.805,6.029,CST-1368DR,6931,9713,15253,0.094,551
2020-01-20T02:25:41,42.805,6.029,CST-1368DR,6931,9715,15256,0.093,550
2020-01-20T02:28:42,42.805,6.029,CST-1368DR,6931,9715,15255,0.094,551
2020-01-20T02:31:44,42.805,6.029,CST-1368DR,6931,9715,15256,0.093,551
2020-01-20T02:34:46,42.805,6.029,CST-1368DR,6931,9715,15255,0.094,551
2020-01-20T02:37:47,42.805,6.029,CST-1368DR,6931,9715,15255,0.094,551
2020-01-20T02:40:49,42.805,6.029,CST-1368DR,6931,9710,15248,0.095,551
2020-01-20T02:43:51,42.805,6.029,CST-1368DR,6931,9714,15254,0.094,551
2020-01-20T02:46:52,42.805,6.029,CST-1368DR,6931,9714,15254,0.094,551
2020-01-20T02:49:54,42.805,6.029,CST-1368DR,6931,9715,15255,0.094,551
2020-01-20T02:52:56,42.805,6.029,CST-1368DR,6931,9715,15255,0.094,551
2020-01-20T02:55:57,42.805,6.029,CST-1368DR,6931,9714,15254,0.094,551
2020-01-20T02:58:59,42.805,6.029,CST-1368DR,6931,9712,15251,0.095,551
2020-01-20T03:02:00,42.805,6.029,CST-1368DR,6931,9713,15252,0.094,551
2020-01-20T03:05:02,42.805,6.029,CST-1368DR,6931,9713,15252,0.094,550
2020-01-20T03:08:04,42.805,6.029,CST-1368DR,6931,9714,15254,0.094,550
2020-01-20T03:11:05,42.805,6.029,CST-1368DR,6931,9713,15252,0.094,551
2020-01-20T03:14:07,42.805,6.029,CST-1368DR,6931,9714,15253,0.094,551
2020-01-20T03:17:09,42.805,6.029,CST-1368DR,6930,9714,15257,0.093,551
2020-01-20T03:20:10,42.805,6.029,CST-1368DR,6930,9714,15255,0.094,551
2020-01-20T03:23:12,42.805,6.029,CST-1368DR,6930,9714,15257,0.093,551
2020-01-20T03:26:14,42.805,6.029,CST-1368DR,6930,9713,15255,0.094,551
2020-01-20T03:29:15,42.805,6.029,CST-1368DR,6930,9713,15255,0.094,551
2020-01-20T03:32:17,42.805,6.029,CST-1368DR,6930,9714,15257,0.093,551
2020-01-20T03:35:19,42.805,6.029,CST-1368DR,6930,9712,15253,0.094,551
2020-01-20T03:38:21,42.805,6.029,CST-1368DR,6930,9713,15254,0.094,551
2020-01-20T03:41:22,42.805,6.029,CST-1368DR,6930,9712,15253,0.094,551
2020-01-20T03:44:24,42.805,6.029,CST-1368DR,6930,9712,15253,0.094,551
2020-01-20T03:47:26,42.805,6.029,CST-1368DR,6930,9708,15247,0.096,551
2020-01-20T03:50:27,42.805,6.029,CST-1368DR,6930,9711,15251,0.095,551
2020-01-20T03:53:29,42.805,6.029,CST-1368DR,6930,9712,15252,0.094,551
2020-01-20T03:56:31,42.805,6.029,CST-1368DR,6930,9711,15252,0.094,551
2020-01-20T03:59:32,42.805,6.029,CST-1368DR,6930,9711,15251,0.095,551
2020-01-20T04:02:34,42.805,6.029,CST-1368DR,6930,9711,15251,0.095,551
2020-01-20T04:05:35,42.805,6.029,CST-1368DR,6930,9710,15249,0.095,551
2020-01-20T04:08:37,42.805,6.029,CST-1368DR,6930,9710,15249,0.095,551
2020-01-20T04:11:39,42.805,6.029,CST-1368DR,6930,9711,15252,0.094,551
2020-01-20T04:14:40,42.805,6.029,CST-1368DR,6930,9712,15252,0.094,551
2020-01-20T04:17:42,42.805,6.029,CST-1368DR,6930,9711,15251,0.095,551
2020-01-20T04:20:44,42.805,6.029,CST-1368DR,6930,9712,15252,0.094,551
2020-01-20T04:23:45,42.805,6.029,CST-1368DR,6930,9711,15251,0.095,551
2020-01-20T04:26:47,42.805,6.029,CST-1368DR,6930,9711,15251,0.095,551
2020-01-20T04:29:50,42.805,6.029,CST-1368DR,6930,9710,15250,0.095,551
2020-01-20T04:32:51,42.805,6.029,CST-1368DR,6930,9711,15252,0.094,551
2020-01-20T04:35:53,42.805,6.029,CST-1368DR,6930,9711,15252,0.094,551
2020-01-20T04:38:54,42.805,6.029,CST-1368DR,6930,9712,15252,0.094,551
2020-01-20T04:41:56,42.805,6.029,CST-1368DR,6930,9711,15251,0.095,551
2020-01-20T04:44:58,42.805,6.029,CST-1368DR,6930,9710,15250,0.095,551
2020-01-20T04:47:59,42.805,6.029,CST-1368DR,6930,9711,15251,0.095,550
2020-01-20T04:51:01,42.805,6.029,CST-1368DR,6930,9710,15250,0.095,551
2020-01-20T04:54:03,42.805,6.029,CST-1368DR,6930,9711,15252,0.094,551
2020-01-20T04:57:04,42.805,6.029,CST-1368DR,6930,9711,15251,0.095,551
2020-01-20T05:00:06,42.805,6.029,CST-1368DR,6930,9712,15252,0.094,551
2020-01-20T05:03:08,42.805,6.029,CST-1368DR,6930,9711,15251,0.095,550
2020-01-20T05:06:09,42.805,6.029,CST-1368DR,6930,9710,15250,0.095,551
2020-01-20T05:09:11,42.805,6.029,CST-1368DR,6930,9710,15249,0.095,551
2020-01-20T05:12:13,42.805,6.029,CST-1368DR,6930,9711,15251,0.095,551
2020-01-20T05:15:14,42.805,6.029,CST-1368DR,6930,9711,15252,0.094,551
2020-01-20T05:18:16,42.805,6.029,CST-1368DR,6930,9711,15252,0.094,551
2020-01-20T05:21:17,42.805,6.029,CST-1368DR,6930,9710,15250,0.095,551
2020-01-20T05:24:19,42.805,6.029,CST-1368DR,6930,9712,15253,0.094,551
2020-01-20T05:27:21,42.805,6.029,CST-1368DR,6930,9712,15253,0.094,551
2020-01-20T05:30:22,42.805,6.029,CST-1368DR,6930,9711,15252,0.094,551
2020-01-20T05:33:24,42.805,6.029,CST-1368DR,6930,9712,15252,0.094,551
2020-01-20T05:36:26,42.805,6.029,CST-1368DR,6930,9711,15251,0.095,551
2020-01-20T05:39:27,42.805,6.029,CST-1368DR,6930,9712,15253,0.094,551
2020-01-20T05:42:29,42.805,6.029,CST-1368DR,6930,9712,15252,0.094,551
2020-01-20T05:45:31,42.805,6.029,CST-1368DR,6930,9710,15250,0.095,551
2020-01-20T05:48:32,42.805,6.029,CST-1368DR,6930,9711,15251,0.095,551
2020-01-20T05:51:34,42.805,6.029,CST-1368DR,6930,9711,15252,0.094,551
2020-01-20T05:54:36,42.805,6.029,CST-1368DR,6930,9711,15251,0.095,551
2020-01-20T05:57:37,42.805,6.029,CST-1368DR,6930,9705,15242,0.097,551
2020-01-20T06:00:39,42.805,6.029,CST-1368DR,6930,9711,15252,0.094,551
2020-01-20T06:03:41,42.805,6.029,CST-1368DR,6930,9712,15253,0.094,551
2020-01-20T06:06:42,42.805,6.029,CST-1368DR,6930,9712,15252,0.094,551
2020-01-20T06:09:44,42.805,6.029,CST-1368DR,6930,9712,15253,0.094,551
2020-01-20T06:12:46,42.805,6.029,CST-1368DR,6930,9711,15252,0.094,551
2020-01-20T06:15:47,42.805,6.029,CST-1368DR,6930,9711,15251,0.095,551
2020-01-20T06:18:49,42.805,6.029,CST-1368DR,6930,9712,15253,0.094,551
2020-01-20T06:21:51,42.805,6.029,CST-1368DR,6930,9712,15252,0.094,551
2020-01-20T06:24:52,42.805,6.029,CST-1368DR,6930,9712,15252,0.094,551
2020-01-20T06:27:54,42.805,6.029,CST-1368DR,6930,9712,15253,0.094,551
2020-01-20T06:30:56,42.805,6.029,CST-1368DR,6930,9711,15252,0.094,551
2020-01-20T06:33:57,42.805,6.029,CST-1368DR,6930,9712,15252,0.094,551
2020-01-20T06:36:59,42.805,6.029,CST-1368DR,6930,9711,15252,0.094,551
2020-01-20T06:40:01,42.805,6.029,CST-1368DR,6930,9712,15252,0.094,551
2020-01-20T06:43:02,42.805,6.029,CST-1368DR,6929,9711,15253,0.094,551
2020-01-20T06:46:04,42.805,6.029,CST-1368DR,6930,9712,15253,0.094,551
2020-01-20T06:49:06,42.805,6.029,CST-1368DR,6930,9711,15252,0.094,551
2020-01-20T06:52:07,42.805,6.029,CST-1368DR,6929,9712,15255,0.094,551
2020-01-20T06:55:09,42.805,6.029,CST-1368DR,6930,9712,15253,0.094,551
2020-01-20T06:58:11,42.805,6.029,CST-1368DR,6930,9712,15253,0.094,550
2020-01-20T07:01:12,42.805,6.029,CST-1368DR,6930,9712,15252,0.094,551
2020-01-20T07:04:14,42.805,6.029,CST-1368DR,6929,9712,15255,0.094,551
2020-01-20T07:07:16,42.805,6.029,CST-1368DR,6929,9711,15254,0.094,551
2020-01-20T07:10:17,42.805,6.029,CST-1368DR,6929,9712,15255,0.094,551
2020-01-20T07:13:19,42.805,6.029,CST-1368DR,6929,9711,15253,0.094,551
2020-01-20T07:16:20,42.805,6.029,CST-1368DR,6929,9711,15253,0.094,551
2020-01-20T07:19:22,42.805,6.029,CST-1368DR,6929,9709,15250,0.095,551
2020-01-20T07:22:24,42.805,6.029,CST-1368DR,6929,9709,15250,0.095,551
2020-01-20T07:25:25,42.805,6.029,CST-1368DR,6929,9711,15253,0.094,551
2020-01-20T07:28:27,42.805,6.029,CST-1368DR,6929,9710,15252,0.094,551
2020-01-20T07:31:29,42.805,6.029,CST-1368DR,6929,9711,15253,0.094,551
2020-01-20T07:34:30,42.805,6.029,CST-1368DR,6929,9710,15252,0.094,551
2020-01-20T07:37:32,42.805,6.029,CST-1368DR,6929,9711,15253,0.094,551
2020-01-20T07:40:34,42.805,6.029,CST-1368DR,6929,9711,15253,0.094,551
2020-01-20T07:43:36,42.805,6.029,CST-1368DR,6929,9711,15253,0.094,551
2020-01-20T07:46:37,42.805,6.029,CST-1368DR,6929,9710,15252,0.094,551
2020-01-20T07:49:39,42.805,6.029,CST-1368DR,6929,9710,15252,0.094,551
2020-01-20T07:52:41,42.805,6.029,CST-1368DR,6929,9710,15252,0.094,551
2020-01-20T07:55:42,42.805,6.029,CST-1368DR,6929,9712,15255,0.094,551
2020-01-20T07:58:44,42.805,6.029,CST-1368DR,6929,9711,15253,0.094,550
2020-01-20T08:01:46,42.805,6.029,CST-1368DR,6929,9711,15253,0.094,551
2020-01-20T08:04:47,42.805,6.029,CST-1368DR,6929,9711,15254,0.094,551
2020-01-20T08:07:49,42.805,6.029,CST-1368DR,6929,9706,15246,0.096,550
2020-01-20T08:10:51,42.805,6.029,CST-1368DR,6929,9709,15250,0.095,551
2020-01-20T08:13:52,42.805,6.029,CST-1368DR,6929,9711,15253,0.094,551
2020-01-20T08:16:54,42.805,6.029,CST-1368DR,6929,9710,15252,0.094,551
2020-01-20T08:19:56,42.805,6.029,CST-1368DR,6929,9711,15253,0.094,551
2020-01-20T08:22:57,42.805,6.029,CST-1368DR,6929,9710,15251,0.095,551
2020-01-20T08:25:59,42.805,6.029,CST-1368DR,6929,9710,15252,0.094,551
2020-01-20T08:29:01,42.805,6.029,CST-1368DR,6929,9709,15250,0.095,551
2020-01-20T08:32:02,42.805,6.029,CST-1368DR,6929,9711,15253,0.094,551
2020-01-20T08:35:04,42.805,6.029,CST-1368DR,6929,9710,15252,0.094,551
2020-01-20T08:38:06,42.805,6.029,CST-1368DR,6929,9710,15252,0.094,550
2020-01-20T08:41:07,42.805,6.029,CST-1368DR,6929,9710,15252,0.094,551
2020-01-20T08:44:09,42.805,6.029,CST-1368DR,6929,9711,15253,0.094,551
2020-01-20T08:47:11,42.805,6.029,CST-1368DR,6929,9711,15253,0.094,551
2020-01-20T08:50:12,42.805,6.029,CST-1368DR,6929,9711,15253,0.094,551
2020-01-20T08:53:14,42.805,6.029,CST-1368DR,6929,9710,15252,0.094,550
2020-01-20T08:56:16,42.805,6.029,CST-1368DR,6929,9711,15254,0.094,551
2020-01-20T08:59:17,42.805,6.029,CST-1368DR,6929,9710,15251,0.095,551
2020-01-20T09:02:19,42.805,6.029,CST-1368DR,6929,9710,15252,0.094,551
2020-01-20T09:05:21,42.805,6.029,CST-1368DR,6929,9711,15253,0.094,551
2020-01-20T09:08:22,42.805,6.029,CST-1368DR,6929,9711,15253,0.094,551
2020-01-20T09:11:24,42.805,6.029,CST-1368DR,6929,9711,15253,0.094,551
2020-01-20T09:14:26,42.805,6.029,CST-1368DR,6929,9710,15252,0.094,551
2020-01-20T09:17:27,42.805,6.029,CST-1368DR,6929,9711,15253,0.094,551
2020-01-20T09:20:29,42.805,6.029,CST-1368DR,6929,9710,15252,0.094,551
2020-01-20T09:23:31,42.805,6.029,CST-1368DR,6929,9711,15253,0.094,551
2020-01-20T09:26:32,42.805,6.029,CST-1368DR,6929,9710,15252,0.094,551
2020-01-20T09:29:34,42.805,6.029,CST-1368DR,6929,9709,15250,0.095,551
2020-01-20T09:32:36,42.805,6.029,CST-1368DR,6929,9711,15253,0.094,551
2020-01-20T09:35:37,42.805,6.029,CST-1368DR,6929,9710,15252,0.094,551
2020-01-20T09:38:39,42.805,6.029,CST-1368DR,6929,9711,15253,0.094,551
2020-01-20T09:41:41,42.805,6.029,CST-1368DR,6929,9711,15253,0.094,551
2020-01-20T09:44:42,42.805,6.029,CST-1368DR,6929,9710,15252,0.094,551
2020-01-20T09:47:44,42.805,6.029,CST-1368DR,6929,9711,15253,0.094,550
2020-01-20T09:50:46,42.805,6.029,CST-1368DR,6929,9711,15253,0.094,551
2020-01-20T09:53:47,42.805,6.029,CST-1368DR,6929,9709,15250,0.095,551
2020-01-20T09:56:49,42.805,6.029,CST-1368DR,6929,9710,15252,0.094,551
2020-01-20T09:59:51,42.805,6.029,CST-1368DR,6929,9710,15251,0.095,551
2020-01-20T10:02:52,42.805,6.029,CST-1368DR,6929,9710,15252,0.094,551
2020-01-20T10:05:54,42.805,6.029,CST-1368DR,6929,9706,15245,0.096,551
2020-01-20T10:08:56,42.805,6.029,CST-1368DR,6929,9704,15242,0.097,551
2020-01-20T10:11:57,42.805,6.029,CST-1368DR,6929,9708,15249,0.095,551
2020-01-20T10:14:59,42.805,6.029,CST-1368DR,6929,9710,15252,0.094,551
2020-01-20T10:18:01,42.805,6.029,CST-1368DR,6929,9707,15247,0.096,551
2020-01-20T10:21:03,42.805,6.029,CST-1368DR,6929,9709,15250,0.095,551
2020-01-20T10:24:04,42.805,6.029,CST-1368DR,6929,9710,15252,0.094,551
2020-01-20T10:27:06,42.805,6.029,CST-1368DR,6929,9710,15252,0.094,551
2020-01-20T10:30:08,42.805,6.029,CST-1368DR,6929,9710,15252,0.094,550
2020-01-20T10:33:09,42.805,6.029,CST-1368DR,6929,9708,15249,0.095,551
2020-01-20T10:36:11,42.805,6.029,CST-1368DR,6929,9711,15253,0.094,551
2020-01-20T10:39:13,42.805,6.029,CST-1368DR,6929,9710,15252,0.094,551
2020-01-20T10:42:14,42.805,6.029,CST-1368DR,6929,9709,15250,0.095,551
2020-01-20T10:45:16,42.805,6.029,CST-1368DR,6929,9709,15250,0.095,551
2020-01-20T10:48:18,42.805,6.029,CST-1368DR,6929,9711,15253,0.094,550
2020-01-20T10:51:20,42.805,6.029,CST-1368DR,6929,9708,15248,0.095,550
2020-01-20T10:54:21,42.805,6.029,CST-1368DR,6929,9710,15252,0.094,551
2020-01-20T10:57:23,42.805,6.029,CST-1368DR,6929,9708,15248,0.095,551
2020-01-20T11:00:25,42.805,6.029,CST-1368DR,6929,9708,15249,0.095,551
2020-01-20T11:03:26,42.805,6.029,CST-1368DR,6929,9710,15252,0.094,551
2020-01-20T11:06:28,42.805,6.029,CST-1368DR,6929,9710,15252,0.094,551
2020-01-20T11:09:30,42.805,6.029,CST-1368DR,6929,9709,15250,0.095,551
2020-01-20T11:12:31,42.805,6.029,CST-1368DR,6929,9710,15252,0.094,551
2020-01-20T11:15:33,42.805,6.029,CST-1368DR,6929,9709,15250,0.095,551
2020-01-20T11:18:35,42.805,6.029,CST-1368DR,6929,9709,15250,0.095,551
2020-01-20T11:21:36,42.805,6.029,CST-1368DR,6929,9710,15252,0.094,551
2020-01-20T11:24:38,42.805,6.029,CST-1368DR,6929,9710,15252,0.094,550
2020-01-20T11:27:40,42.805,6.029,CST-1368DR,6928,9710,15254,0.094,551
2020-01-20T11:30:41,42.805,6.029,CST-1368DR,6929,9710,15252,0.094,551
2020-01-20T11:33:43,42.805,6.029,CST-1368DR,6929,9710,15252,0.094,551
2020-01-20T11:36:45,42.805,6.029,CST-1368DR,6929,9710,15252,0.094,550
2020-01-20T11:39:46,42.805,6.029,CST-1368DR,6929,9710,15251,0.095,551
2020-01-20T11:42:48,42.805,6.029,CST-1368DR,6928,9711,15255,0.094,551
2020-01-20T11:45:49,42.805,6.029,CST-1368DR,6929,9710,15252,0.094,551
2020-01-20T11:48:51,42.805,6.029,CST-1368DR,6928,9708,15251,0.095,551
2020-01-20T11:51:53,42.805,6.029,CST-1368DR,6928,9708,15251,0.095,551
2020-01-20T11:54:54,42.805,6.029,CST-1368DR,6928,9708,15250,0.095,551
2020-01-20T11:57:56,42.805,6.029,CST-1368DR,6928,9710,15254,0.094,551
2020-01-20T12:00:58,42.805,6.029,CST-1368DR,6928,9708,15251,0.095,551
2020-01-20T12:03:59,42.805,6.029,CST-1368DR,6928,9710,15253,0.094,551
2020-01-20T12:07:01,42.805,6.029,CST-1368DR,6928,9710,15254,0.094,551
2020-01-20T12:10:03,42.805,6.029,CST-1368DR,6928,9711,15255,0.094,551
2020-01-20T12:13:04,42.805,6.029,CST-1368DR,6928,9710,15254,0.094,551
2020-01-20T12:16:06,42.805,6.029,CST-1368DR,6928,9709,15252,0.094,551
2020-01-20T12:19:08,42.805,6.029,CST-1368DR,6928,9709,15252,0.094,551
2020-01-20T12:22:09,42.805,6.029,CST-1368DR,6928,9710,15254,0.094,551
2020-01-20T12:25:11,42.805,6.029,CST-1368DR,6928,9710,15254,0.094,551
2020-01-20T12:28:12,42.805,6.029,CST-1368DR,6928,9711,15255,0.094,550
2020-01-20T12:31:14,42.805,6.029,CST-1368DR,6928,9710,15254,0.094,551
2020-01-20T12:34:16,42.805,6.029,CST-1368DR,6928,9709,15252,0.094,551
2020-01-20T12:37:18,42.805,6.029,CST-1368DR,6928,9711,15255,0.094,551
2020-01-20T12:40:19,42.805,6.029,CST-1368DR,6928,9711,15255,0.094,551
2020-01-20T12:43:21,42.805,6.029,CST-1368DR,6928,9705,15246,0.096,551
2020-01-20T12:46:23,42.805,6.029,CST-1368DR,6928,9708,15250,0.095,551
2020-01-20T12:49:24,42.805,6.029,CST-1368DR,6928,9710,15254,0.094,551
2020-01-20T12:52:26,42.805,6.029,CST-1368DR,6928,9710,15254,0.094,551
2020-01-20T12:55:28,42.805,6.029,CST-1368DR,6928,9710,15253,0.094,551
2020-01-20T12:58:29,42.805,6.029,CST-1368DR,6928,9710,15254,0.094,551
2020-01-20T13:01:31,42.805,6.029,CST-1368DR,6928,9710,15253,0.094,551
2020-01-20T13:04:33,42.805,6.029,CST-1368DR,6928,9707,15249,0.095,551
2020-01-20T13:07:34,42.805,6.029,CST-1368DR,6928,9710,15254,0.094,551
2020-01-20T13:10:36,42.805,6.029,CST-1368DR,6928,9710,15254,0.094,551
2020-01-20T13:13:38,42.805,6.029,CST-1368DR,6928,9710,15254,0.094,550
2020-01-20T13:16:39,42.805,6.029,CST-1368DR,6928,9707,15250,0.095,551
2020-01-20T13:19:41,42.805,6.029,CST-1368DR,6928,9709,15252,0.094,551
2020-01-20T13:22:43,42.805,6.029,CST-1368DR,6928,9709,15252,0.094,551
2020-01-20T13:25:44,42.805,6.029,CST-1368DR,6928,9710,15254,0.094,551
2020-01-20T13:28:46,42.805,6.029,CST-1368DR,6928,9710,15254,0.094,551
2020-01-20T13:31:47,42.805,6.029,CST-1368DR,6928,9710,15254,0.094,551
2020-01-20T13:34:49,42.805,6.029,CST-1368DR,6928,9710,15254,0.094,551
2020-01-20T13:37:51,42.805,6.029,CST-1368DR,6928,9710,15254,0.094,551
2020-01-20T13:40:52,42.805,6.029,CST-1368DR,6928,9709,15252,0.094,551
2020-01-20T13:43:54,42.805,6.029,CST-1368DR,6928,9708,15250,0.095,551
2020-01-20T13:46:56,42.805,6.029,CST-1368DR,6928,9709,15252,0.094,551
2020-01-20T13:49:57,42.805,6.029,CST-1368DR,6928,9710,15253,0.094,551
2020-01-20T13:52:59,42.805,6.029,CST-1368DR,6928,9708,15251,0.095,551
2020-01-20T13:56:01,42.805,6.029,CST-1368DR,6928,9709,15252,0.094,551
2020-01-20T13:59:02,42.805,6.029,CST-1368DR,6928,9709,15252,0.094,551
2020-01-20T14:02:04,42.805,6.029,CST-1368DR,6928,9708,15250,0.095,551
2020-01-20T14:05:06,42.805,6.029,CST-1368DR,6928,9709,15252,0.094,551
2020-01-20T14:08:07,42.805,6.029,CST-1368DR,6928,9705,15246,0.096,551
2020-01-20T14:11:09,42.805,6.029,CST-1368DR,6928,9708,15251,0.095,551
2020-01-20T14:14:11,42.805,6.029,CST-1368DR,6928,9708,15250,0.095,551
2020-01-20T14:17:12,42.805,6.029,CST-1368DR,6928,9709,15252,0.094,551
2020-01-20T14:20:14,42.805,6.029,CST-1368DR,6928,9708,15251,0.095,551
2020-01-20T14:23:16,42.805,6.029,CST-1368DR,6928,9710,15253,0.094,550
2020-01-20T14:26:17,42.805,6.029,CST-1368DR,6928,9709,15252,0.094,551
2020-01-20T14:29:19,42.805,6.029,CST-1368DR,6928,9709,15252,0.094,551
2020-01-20T14:32:20,42.805,6.029,CST-1368DR,6928,9706,15248,0.095,551
2020-01-20T14:35:22,42.805,6.029,CST-1368DR,6928,9709,15252,0.094,551
2020-01-20T14:38:24,42.805,6.029,CST-1368DR,6928,9708,15251,0.095,551
2020-01-20T14:41:25,42.805,6.029,CST-1368DR,6928,9706,15248,0.095,551
2020-01-20T14:44:27,42.805,6.029,CST-1368DR,6928,9708,15251,0.095,551
2020-01-20T14:47:29,42.805,6.029,CST-1368DR,6927,9710,15255,0.094,551
2020-01-20T14:50:30,42.805,6.029,CST-1368DR,6928,9710,15253,0.094,551
2020-01-20T14:53:32,42.805,6.029,CST-1368DR,6928,9710,15253,0.094,551
2020-01-20T14:56:34,42.805,6.029,CST-1368DR,6928,9709,15252,0.094,551
2020-01-20T14:59:35,42.805,6.029,CST-1368DR,6928,9709,15252,0.094,551
2020-01-20T15:02:37,42.805,6.029,CST-1368DR,6928,9709,15252,0.094,551
2020-01-20T15:05:38,42.805,6.029,CST-1368DR,6928,9708,15251,0.095,551
2020-01-20T15:08:40,42.805,6.029,CST-1368DR,6928,9709,15252,0.094,551
2020-01-20T15:11:42,42.805,6.029,CST-1368DR,6928,9710,15254,0.094,551
2020-01-20T15:14:44,42.805,6.029,CST-1368DR,6928,9706,15248,0.095,551
2020-01-20T15:17:45,42.805,6.029,CST-1368DR,6928,9710,15253,0.094,551
2020-01-20T15:20:47,42.805,6.029,CST-1368DR,6928,9708,15250,0.095,551
2020-01-20T15:23:49,42.805,6.029,CST-1368DR,6927,9710,15256,0.093,551
2020-01-20T15:26:50,42.805,6.029,CST-1368DR,6927,9709,15254,0.094,551
2020-01-20T15:29:52,42.805,6.029,CST-1368DR,6928,9710,15254,0.094,551
2020-01-20T15:32:53,42.805,6.029,CST-1368DR,6928,9708,15250,0.095,551
2020-01-20T15:35:55,42.805,6.029,CST-1368DR,6927,9708,15252,0.094,551
2020-01-20T15:38:57,42.805,6.029,CST-1368DR,6927,9709,15254,0.094,551
2020-01-20T15:41:58,42.805,6.029,CST-1368DR,6927,9708,15252,0.094,551
2020-01-20T15:45:00,42.805,6.029,CST-1368DR,6927,9708,15253,0.094,551
2020-01-20T15:48:02,42.805,6.029,CST-1368DR,6927,9708,15252,0.094,551
2020-01-20T15:51:03,42.805,6.029,CST-1368DR,6927,9706,15250,0.095,551
2020-01-20T15:54:05,42.805,6.029,CST-1368DR,6927,9709,15254,0.094,551
2020-01-20T15:57:07,42.805,6.029,CST-1368DR,6927,9709,15254,0.094,551
2020-01-20T16:00:08,42.805,6.029,CST-1368DR,6927,9709,15254,0.094,551
2020-01-20T16:03:10,42.805,6.029,CST-1368DR,6927,9709,15254,0.094,551
2020-01-20T16:06:12,42.805,6.029,CST-1368DR,6927,9709,15254,0.094,551
2020-01-20T16:09:13,42.805,6.029,CST-1368DR,6927,9709,15254,0.094,551
2020-01-20T16:12:15,42.805,6.029,CST-1368DR,6927,9710,15255,0.094,551
2020-01-20T16:15:17,42.805,6.029,CST-1368DR,6927,9709,15254,0.094,551
2020-01-20T16:18:19,42.805,6.029,CST-1368DR,6927,9707,15252,0.094,551
2020-01-20T16:21:20,42.805,6.029,CST-1368DR,6927,9709,15254,0.094,551
2020-01-20T16:24:22,42.805,6.029,CST-1368DR,6927,9705,15247,0.096,551
2020-01-20T16:27:24,42.805,6.029,CST-1368DR,6927,9706,15250,0.095,551
2020-01-20T16:30:26,42.805,6.029,CST-1368DR,6927,9708,15252,0.094,551
2020-01-20T16:33:28,42.805,6.029,CST-1368DR,6927,9708,15253,0.094,551
2020-01-20T16:36:30,42.805,6.029,CST-1368DR,6927,9708,15252,0.094,551
2020-01-20T16:39:31,42.805,6.029,CST-1368DR,6927,9709,15254,0.094,551
2020-01-20T16:42:33,42.805,6.029,CST-1368DR,6927,9708,15253,0.094,551
2020-01-20T16:45:34,42.805,6.029,CST-1368DR,6927,9709,15254,0.094,550
2020-01-20T16:48:36,42.805,6.029,CST-1368DR,6927,9708,15252,0.094,551
2020-01-20T16:51:38,42.805,6.029,CST-1368DR,6927,9708,15252,0.094,551